Time,TemperatureF,DewpointF,PressureIn,WindDirection,WindDirectionDegrees,WindSpeedMPH,WindSpeedGustMPH,Humidity,HourlyPrecipIn,Conditions,Clouds,dailyrainin,SolarRadiationWatts/m^2,SoftwareType,DateUTC
2014-12-27 00:00:00,12.5,10.4,-100.00,South,188,5.6,7.8,91,0.00,,,-99.99,1.0,HOBO +U30 +Weather +,2014-12-27 07:00:00,
2014-12-27 00:05:00,12.1,10.1,-100.00,SSW,194,5.6,7.4,91,0.00,,,-99.99,1.0,HOBO +U30 +Weather +,2014-12-27 07:05:00,
2014-12-27 00:10:00,12.1,10.0,-100.00,SSW,199,5.6,6.7,91,0.00,,,-99.99,1.0,HOBO +U30 +Weather +,2014-12-27 07:10:00,
2014-12-27 00:15:00,12.0,9.9,-100.00,SSW,192,6.3,8.5,91,0.00,,,-99.99,1.0,HOBO +U30 +Weather +,2014-12-27 07:15:00,
2014-12-27 00:20:00,12.3,10.1,-100.00,SSW,192,7.4,8.5,91,0.00,,,-99.99,1.0,HOBO +U30 +Weather +,2014-12-27 07:20:00,
2014-12-27 00:25:00,12.4,10.2,-100.00,SSW,197,6.7,8.9,90,0.00,,,-99.99,1.0,HOBO +U30 +Weather +,2014-12-27 07:25:00,
2014-12-27 00:30:00,12.3,10.0,-100.00,SSW,199,6.7,9.6,90,0.00,,,-99.99,1.0,HOBO +U30 +Weather +,2014-12-27 07:30:00,
2014-12-27 00:35:00,11.8,9.4,-100.00,South,187,6.7,8.9,90,0.00,,,-99.99,1.0,HOBO +U30 +Weather +,2014-12-27 07:35:00,
2014-12-27 00:40:00,11.4,9.2,-100.00,South,185,6.7,9.6,91,0.00,,,-99.99,1.0,HOBO +U30 +Weather +,2014-12-27 07:40:00,
2014-12-27 00:45:00,11.4,9.2,-100.00,South,187,6.3,8.9,91,0.00,,,-99.99,1.0,HOBO +U30 +Weather +,2014-12-27 07:45:00,
2014-12-27 00:59:00,11.2,9.2,-100.00,South,187,6.7,9.6,91,0.00,,,-99.99,1.0,HOBO +U30 +Weather +,2014-12-27 07:59:00,
2014-12-27 01:00:00,11.0,9.0,-100.00,South,187,7.4,8.9,91,0.00,,,-99.99,1.0,HOBO +U30 +Weather +,2014-12-27 08:00:00,
2014-12-27 01:05:00,10.7,8.8,-100.00,South,191,6.3,8.5,91,0.00,,,-99.99,1.0,HOBO +U30 +Weather +,2014-12-27 08:05:00,
2014-12-27 01:10:00,10.6,8.8,-100.00,SSW,195,5.6,8.5,92,0.00,,,-99.99,1.0,HOBO +U30 +Weather +,2014-12-27 08:10:00,
2014-12-27 01:15:00,10.6,8.8,-100.00,SSW,201,6.7,8.9,92,0.00,,,-99.99,1.0,HOBO +U30 +Weather +,2014-12-27 08:15:00,
2014-12-27 01:20:00,10.4,8.5,-100.00,SSW,194,6.3,8.5,91,0.00,,,-99.99,1.0,HOBO +U30 +Weather +,2014-12-27 08:20:00,
2014-12-27 01:25:00,10.5,8.7,-100.00,SSW,199,5.6,7.8,92,0.00,,,-99.99,1.0,HOBO +U30 +Weather +,2014-12-27 08:25:00,
2014-12-27 01:30:00,10.6,8.6,-100.00,SSW,198,5.6,9.6,91,0.00,,,-99.99,1.0,HOBO +U30 +Weather +,2014-12-27 08:30:00,
2014-12-27 01:35:00,10.8,8.9,-100.00,SSW,201,5.6,8.9,91,0.00,,,-99.99,1.0,HOBO +U30 +Weather +,2014-12-27 08:35:00,
2014-12-27 01:40:00,11.3,9.1,-100.00,SSW,202,7.4,10.7,90,0.00,,,-99.99,1.0,HOBO +U30 +Weather +,2014-12-27 08:40:00,
2014-12-27 01:45:00,11.0,8.8,-100.00,South,191,6.7,9.6,90,0.00,,,-99.99,1.0,HOBO +U30 +Weather +,2014-12-27 08:45:00,
2014-12-27 01:50:00,10.4,8.3,-100.00,South,184,5.6,7.4,91,0.00,,,-99.99,1.0,HOBO +U30 +Weather +,2014-12-27 08:50:00,
2014-12-27 01:55:00,10.2,8.3,-100.00,SSW,195,5.1,7.4,91,0.00,,,-99.99,1.0,HOBO +U30 +Weather +,2014-12-27 08:55:00,
2014-12-27 02:00:00,10.2,8.4,-100.00,SSW,197,5.1,6.7,92,0.00,,,-99.99,1.0,HOBO +U30 +Weather +,2014-12-27 09:00:00,
2014-12-27 02:05:00,10.3,8.5,-100.00,SSW,194,5.1,7.4,92,0.00,,,-99.99,1.0,HOBO +U30 +Weather +,2014-12-27 09:05:00,
2014-12-27 02:10:00,10.4,8.5,-100.00,SSW,195,5.1,7.8,92,0.00,,,-99.99,1.0,HOBO +U30 +Weather +,2014-12-27 09:10:00,
2014-12-27 02:15:00,10.5,8.7,-100.00,SSW,197,5.6,7.4,92,0.00,,,-99.99,1.0,HOBO +U30 +Weather +,2014-12-27 09:15:00,
2014-12-27 02:20:00,10.6,8.8,-100.00,SSW,198,5.1,7.4,92,0.00,,,-99.99,1.0,HOBO +U30 +Weather +,2014-12-27 09:20:00,
2014-12-27 02:25:00,10.7,8.9,-100.00,SSW,202,4.0,5.1,92,0.00,,,-99.99,1.0,HOBO +U30 +Weather +,2014-12-27 09:25:00,
2014-12-27 02:30:00,10.5,8.7,-100.00,SSW,199,3.4,5.1,92,0.00,,,-99.99,1.0,HOBO +U30 +Weather +,2014-12-27 09:30:00,
2014-12-27 02:35:00,10.7,9.0,-100.00,SSW,202,3.4,5.1,92,0.00,,,-99.99,1.0,HOBO +U30 +Weather +,2014-12-27 09:35:00,
2014-12-27 02:40:00,10.8,9.0,-100.00,SSW,201,2.9,4.5,92,0.00,,,-99.99,1.0,HOBO +U30 +Weather +,2014-12-27 09:40:00,
2014-12-27 02:45:00,10.8,9.0,-100.00,SSW,201,4.0,5.1,92,0.00,,,-99.99,1.0,HOBO +U30 +Weather +,2014-12-27 09:45:00,
2014-12-27 02:57:00,10.5,8.7,-100.00,SSW,198,3.4,5.1,92,0.00,,,-99.99,1.0,HOBO +U30 +Weather +,2014-12-27 09:57:00,